Location: Taylor Dark Sky Site
(39.1017°N, 87.9564°W)
Time: 23:19:45
(UTC-05:00)

Amateur Radio Satellites - All Passes

Search period start: 22 September 2014 22:49
Search period end: 23 September 2014 22:49
Location: Taylor Dark Sky Site, 39.1017°N, 87.9564°W

Satellite Date Start Highest point End Downlink Frequencies (MHz)
Time Altitude Azimuth
FUNcube-1 22 Sep 22:50:34 22:54:52 50° 261° (W) 22:59:17 145.950 - 145.970 MHz USB
Oscar 11 22 Sep 22:52:45 22:55:53 19° 266° (W) 22:59:02 145.825 FM, Beacon 2401.500 USB
HO-68 22 Sep 22:55:25 22:59:01 14° 270° (W) 23:02:39 435.675 MHz FM
Oscar 10/S400 22 Sep 23:21:44 00:08:50 56° 205° (SSW) 08:25:17 145.825 - 145.975 CW/USB, Beacon 145.810 USB
ZACube-1 22 Sep 23:35:25 23:38:20 17° 268° (W) 23:41:19 437.345 MHz
UOSAT-12 22 Sep 23:37:47 23:42:23 80° 302° (WNW) 23:47:07 437.025 FM, 437.400 FM
PANSAT 23 Sep 00:01:44 00:03:11 12° 167° (SSE) 00:04:38 not established
AO-40 23 Sep 00:15:50 01:37:41 19° 232° (SW) 03:58:20 Beacon 2401.320
Saudisat 1A 23 Sep 00:32:01 00:35:43 26° 49° (NE) 00:39:25 436.775 MHz
Oscar 16 23 Sep 01:14:40 01:17:35 15° 91° (E) 01:20:29 437.025 USB, Beacon 2401.1428
UOSAT-12 23 Sep 01:21:19 01:23:19 13° 321° (NW) 01:25:20 437.025 FM, 437.400 FM
ISS 23 Sep 01:22:25 01:25:44 70° 139° (SE) 01:29:03 145.800 FM
PANSAT 23 Sep 01:40:10 01:42:40 17° 179° (S) 01:45:10 not established
JAS-1B 23 Sep 01:51:30 01:55:16 18° 93° (E) 01:59:05 435.800 - 435.900 CW/SSB
ITAMSAT 1 23 Sep 02:05:02 02:08:41 19° 93° (E) 02:12:19 435.822 SSB
Uribyol 2 23 Sep 02:08:01 02:12:01 22° 94° (E) 02:15:59 436.500 FM
Saudisat 1A 23 Sep 02:11:21 02:15:20 34° 246° (WSW) 02:19:17 436.775 MHz
Oscar 19 23 Sep 02:12:44 02:17:48 55° 100° (E) 02:22:49 437.125 CW, 437.150 USB
Gurwin Techsat 1B 23 Sep 02:16:44 02:18:08 11° 89° (E) 02:19:32 435.225 FM
KITSAT 1 23 Sep 02:20:59 02:27:10 23° 39° (NE) 02:33:19 435.175 FM
AO-Echo 23 Sep 02:35:32 02:40:15 45° 99° (E) 02:45:05 ?
RS-15 23 Sep 02:36:55 02:46:09 32° 105° (ESE) 02:55:13 29.354 - 29.394 USB, Beacon 29.352 USB
AO-27 23 Sep 02:40:03 02:45:00 42° 99° (E) 02:49:56 436.795 MHz FM
TMSAT-1 23 Sep 02:49:29 02:53:02 18° 92° (E) 02:56:34 436.925 FM
Oscar 16 23 Sep 02:52:13 02:57:19 60° 287° (WNW) 03:02:22 437.025 USB, Beacon 2401.1428
ISS 23 Sep 03:00:15 03:02:44 19° 337° (NNW) 03:05:13 145.800 FM
PANSAT 23 Sep 03:20:27 03:22:10 13° 192° (SSW) 03:23:53 not established
JAS-1B 23 Sep 03:40:50 03:46:20 52° 289° (WNW) 03:51:57 435.800 - 435.900 CW/SSB
ITAMSAT 1 23 Sep 03:43:24 03:48:25 49° 289° (WNW) 03:53:25 435.822 SSB
Uribyol 2 23 Sep 03:46:43 03:51:38 43° 290° (WNW) 03:56:33 436.500 FM
Oscar 19 23 Sep 03:53:18 03:56:40 18° 297° (WNW) 04:00:02 437.125 CW, 437.150 USB
Gurwin Techsat 1B 23 Sep 03:53:22 03:58:42 82° 285° (WNW) 04:04:00 435.225 FM
OPAL 23 Sep 04:08:09 04:12:57 39° 67° (ENE) 04:17:47 ?
AO-Echo 23 Sep 04:15:13 04:18:43 20° 294° (WNW) 04:22:16 ?
KITSAT 1 23 Sep 04:15:34 04:23:42 88° 61° (ENE) 04:31:46 435.175 FM
AO-7 23 Sep 04:18:24 04:25:34 31° 97° (E) 04:32:40 29.400 - 29.500 MHz
AO-27 23 Sep 04:20:11 04:24:13 23° 295° (WNW) 04:28:15 436.795 MHz FM
TMSAT-1 23 Sep 04:28:06 04:33:15 53° 288° (WNW) 04:38:23 436.925 FM
RS-15 23 Sep 04:46:39 04:57:37 68° 305° (NW) 05:08:32 29.354 - 29.394 USB, Beacon 29.352 USB
SO-50 23 Sep 05:12:37 05:15:53 18° 44° (NE) 05:19:10 436.795 FM
Uosat F 23 Sep 05:27:28 05:32:31 83° 285° (WNW) 05:37:33 435.120 FM
JAS-2 23 Sep 05:30:35 05:35:22 22° 94° (E) 05:40:30 435.800 - 435.900 CW/SSB, 435.910 FM
Gurwin Techsat 1B 23 Sep 05:36:55 05:37:47 10° 302° (WNW) 05:38:39 435.225 FM
Hamsat 23 Sep 05:43:01 05:45:24 15° 92° (E) 05:47:46 145.90 MHz
OPAL 23 Sep 05:47:43 05:51:54 25° 263° (W) 05:56:08 ?
AO-7 23 Sep 06:10:37 06:18:37 56° 294° (WNW) 06:26:37 29.400 - 29.500 MHz
KITSAT 1 23 Sep 06:13:09 06:18:00 17° 259° (W) 06:22:51 435.175 FM
ISS 23 Sep 06:16:27 06:18:22 14° 18° (NNE) 06:20:18 145.800 FM
MaSat-1 23 Sep 06:20:11 06:22:25 13° 101° (E) 06:24:38 437.345 MHz
UOSAT-12 23 Sep 06:31:12 06:32:08 11° 37° (NE) 06:33:05 437.025 FM, 437.400 FM
STRAND 1 23 Sep 06:33:52 06:38:50 58° 73° (ENE) 06:43:50 ?
SO-50 23 Sep 06:52:06 06:56:54 67° 241° (WSW) 07:01:44 436.795 FM
RS-15 23 Sep 07:04:17 07:12:32 23° 334° (NNW) 07:20:51 29.354 - 29.394 USB, Beacon 29.352 USB
JAS-2 23 Sep 07:14:29 07:20:38 62° 287° (WNW) 07:27:33 435.800 - 435.900 CW/SSB, 435.910 FM
Hamsat 23 Sep 07:17:34 07:21:34 42° 287° (WNW) 07:25:31 145.90 MHz
SO-67 23 Sep 07:41:33 07:44:53 44° 99° (E) 07:48:12 435.3500 MHz FM
ISS 23 Sep 07:52:19 07:55:37 62° 36° (NE) 07:58:55 145.800 FM
MaSat-1 23 Sep 07:53:33 07:58:33 72° 296° (WNW) 08:03:26 437.345 MHz
AO-7 23 Sep 08:07:03 08:09:35 12° 315° (NW) 08:12:08 29.400 - 29.500 MHz
UOSAT-12 23 Sep 08:08:32 08:13:15 63° 56° (ENE) 08:17:51 437.025 FM, 437.400 FM
STRAND 1 23 Sep 08:15:27 08:18:23 15° 268° (W) 08:21:20 ?
HO-68 23 Sep 08:34:04 08:38:37 18° 91° (E) 08:43:07 435.675 MHz FM
RS-15 23 Sep 09:23:48 09:30:41 18° 11° (N) 09:37:39 29.354 - 29.394 USB, Beacon 29.352 USB
UKube-1 23 Sep 09:26:08 09:28:46 16° 93° (E) 09:31:24 145.840 MHz, 145.915 MHz
ISS 23 Sep 09:30:20 09:31:57 13° 231° (SW) 09:33:33 145.800 FM
MaSat-1 23 Sep 09:35:04 09:36:00 10° 312° (NW) 09:36:55 437.345 MHz
UOSAT-12 23 Sep 09:50:29 09:52:49 14° 252° (WSW) 09:55:08 437.025 FM, 437.400 FM
HO-68 23 Sep 10:19:47 10:26:59 79° 288° (WNW) 10:34:09 435.675 MHz FM
Sapphire 23 Sep 10:20:32 10:24:03 18° 105° (ESE) 10:27:35 437.095 MHz 1200 baud AX-25 AFSK
Oscar 11 23 Sep 10:40:01 10:44:23 84° 103° (ESE) 10:48:42 145.825 FM, Beacon 2401.500 USB
FUNcube-1 23 Sep 10:41:00 10:45:12 34° 97° (E) 10:49:20 145.950 - 145.970 MHz USB
PCSat 23 Sep 10:45:35 10:50:22 33° 109° (ESE) 10:55:11 145.825 MHz
UKube-1 23 Sep 11:01:01 11:05:09 43° 288° (WNW) 11:09:16 145.840 MHz, 145.915 MHz
ZACube-1 23 Sep 11:23:59 11:28:37 79° 284° (WNW) 11:33:09 437.345 MHz
RS-15 23 Sep 11:37:04 11:47:22 41° 44° (NE) 11:57:57 29.354 - 29.394 USB, Beacon 29.352 USB
Sapphire 23 Sep 12:01:38 12:06:57 59° 301° (WNW) 12:12:19 437.095 MHz 1200 baud AX-25 AFSK
HO-68 23 Sep 12:09:50 12:13:33 15° 306° (NW) 12:17:17 435.675 MHz FM
FUNcube-1 23 Sep 12:17:49 12:21:21 22° 293° (WNW) 12:24:51 145.950 - 145.970 MHz USB
PCSat 23 Sep 12:28:51 12:33:43 33° 307° (NW) 12:38:38 145.825 MHz
Oscar 16 23 Sep 12:30:20 12:34:09 21° 65° (ENE) 12:37:59 437.025 USB, Beacon 2401.1428
JAS-1B 23 Sep 12:35:13 12:40:48 21° 63° (ENE) 12:45:48 435.800 - 435.900 CW/SSB
ITAMSAT 1 23 Sep 13:21:55 13:26:09 26° 66° (ENE) 13:30:25 435.822 SSB
Uribyol 2 23 Sep 13:24:47 13:29:13 30° 67° (ENE) 13:33:41 436.500 FM
Oscar 19 23 Sep 13:28:21 13:33:30 72° 74° (ENE) 13:38:42 437.125 CW, 437.150 USB
Gurwin Techsat 1B 23 Sep 13:35:49 13:39:14 18° 63° (ENE) 13:42:40 435.225 FM
AO-Echo 23 Sep 13:47:43 13:52:16 50° 73° (ENE) 13:56:49 ?
RS-15 23 Sep 13:49:22 14:00:18 64° 246° (WSW) 14:11:42 29.354 - 29.394 USB, Beacon 29.352 USB
Sapphire 23 Sep 13:50:39 13:51:33 10° 322° (NW) 13:52:28 437.095 MHz 1200 baud AX-25 AFSK
AO-27 23 Sep 13:57:04 14:02:07 58° 72° (ENE) 14:07:13 436.795 MHz FM
Oscar 16 23 Sep 14:08:11 14:13:09 46° 261° (W) 14:18:10 437.025 USB, Beacon 2401.1428
TMSAT-1 23 Sep 14:09:02 14:13:19 26° 66° (ENE) 14:17:38 436.925 FM
JAS-1B 23 Sep 14:22:26 14:30:56 75° 256° (WSW) 14:38:01 435.800 - 435.900 CW/SSB
ITAMSAT 1 23 Sep 15:00:45 15:05:28 36° 262° (W) 15:10:13 435.822 SSB
Uosat F 23 Sep 15:03:52 15:06:25 14° 61° (ENE) 15:08:58 435.120 FM
Uribyol 2 23 Sep 15:04:02 15:08:36 31° 263° (W) 15:13:12 436.500 FM
Oscar 19 23 Sep 15:11:08 15:13:20 13° 270° (W) 15:15:33 437.125 CW, 437.150 USB
Gurwin Techsat 1B 23 Sep 15:13:29 15:18:42 59° 259° (W) 15:23:57 435.225 FM
AO-7 23 Sep 15:16:10 15:23:41 40° 62° (ENE) 15:31:12 29.400 - 29.500 MHz
AO-Echo 23 Sep 15:28:40 15:31:20 15° 268° (W) 15:34:00 ?
AO-27 23 Sep 15:38:55 15:41:59 16° 268° (W) 15:45:05 436.795 MHz FM
TMSAT-1 23 Sep 15:48:09 15:53:02 38° 262° (W) 15:57:57 436.925 FM
RS-15 23 Sep 16:07:49 16:10:24 11° 265° (W) 16:13:00 29.354 - 29.394 USB, Beacon 29.352 USB
MaSat-1 23 Sep 16:12:30 16:14:34 14° 50° (NE) 16:16:28 437.345 MHz
Saudisat 1A 23 Sep 16:16:03 16:20:26 81° 120° (ESE) 16:24:51 436.775 MHz
JAS-1B 23 Sep 16:19:25 16:22:05 12° 270° (W) 16:24:38 435.800 - 435.900 CW/SSB
OPAL 23 Sep 16:22:52 16:23:17 10° 91° (E) 16:23:42 ?
Hamsat 23 Sep 16:37:16 16:38:05 11° 63° (ENE) 16:38:54 145.90 MHz
Uosat F 23 Sep 16:39:39 16:44:36 68° 258° (WSW) 16:49:36 435.120 FM
KITSAT 1 23 Sep 16:52:59 16:55:56 12° 99° (E) 16:58:53 435.175 FM
AO-7 23 Sep 17:08:29 17:16:19 45° 260° (W) 17:24:12 29.400 - 29.500 MHz
JAS-2 23 Sep 17:26:45 17:31:42 47° 71° (ENE) 17:36:42 435.800 - 435.900 CW/SSB, 435.910 FM
MaSat-1 23 Sep 17:48:16 17:51:26 31° 253° (WSW) 17:54:12 437.345 MHz
OPAL 23 Sep 17:57:36 18:02:47 84° 287° (WNW) 18:07:50 ?
Saudisat 1A 23 Sep 17:58:21 18:00:35 14° 318° (NW) 18:02:48 436.775 MHz
Hamsat 23 Sep 18:09:05 18:13:26 71° 259° (WSW) 18:17:47 145.90 MHz
SO-67 23 Sep 18:14:53 18:16:36 13° 68° (ENE) 18:18:19 435.3500 MHz FM
KITSAT 1 23 Sep 18:41:54 18:49:56 74° 116° (ESE) 18:58:01 435.175 FM
STRAND 1 23 Sep 18:46:22 18:50:16 21° 94° (E) 18:54:09 ?
HO-68 23 Sep 19:04:12 19:07:11 13° 52° (NE) 19:10:10 435.675 MHz FM
Sapphire 23 Sep 19:08:54 19:11:52 15° 43° (NE) 19:14:49 437.095 MHz 1200 baud AX-25 AFSK
JAS-2 23 Sep 19:13:43 19:17:09 18° 268° (W) 19:20:35 435.800 - 435.900 CW/SSB, 435.910 FM
PCSat 23 Sep 19:34:33 19:38:53 24° 49° (NE) 19:43:12 145.825 MHz
OPAL 23 Sep 19:39:40 19:40:48 11° 304° (WNW) 19:41:55 ?
SO-67 23 Sep 19:46:13 19:49:19 31° 263° (W) 19:52:27 435.3500 MHz FM
UKube-1 23 Sep 20:21:41 20:23:38 13° 63° (ENE) 20:25:35 145.840 MHz, 145.915 MHz
STRAND 1 23 Sep 20:24:46 20:29:36 43° 290° (WNW) 20:34:26 ?
KITSAT 1 23 Sep 20:39:22 20:46:05 28° 317° (NW) 20:52:51 435.175 FM
HO-68 23 Sep 20:46:33 20:53:37 71° 71° (ENE) 21:00:44 435.675 MHz FM
Sapphire 23 Sep 20:50:38 20:56:06 87° 62° (ENE) 21:01:31 437.095 MHz 1200 baud AX-25 AFSK
SO-50 23 Sep 21:06:00 21:10:19 52° 117° (ESE) 21:14:46 436.795 FM
PCSat 23 Sep 21:17:20 21:22:35 51° 247° (WSW) 21:27:48 145.825 MHz
Oscar 11 23 Sep 21:33:42 21:37:58 56° 74° (ENE) 21:42:15 145.825 FM, Beacon 2401.500 USB
FUNcube-1 23 Sep 21:36:35 21:40:12 25° 68° (ENE) 21:43:53 145.950 - 145.970 MHz USB
UKube-1 23 Sep 21:55:04 21:59:20 57° 259° (W) 22:03:37 145.840 MHz, 145.915 MHz
ZACube-1 23 Sep 22:18:59 22:23:24 72° 76° (ENE) 22:27:57 437.345 MHz
UOSAT-12 23 Sep 22:19:23 22:23:05 24° 111° (ESE) 22:26:52 437.025 FM, 437.400 FM
HO-68 23 Sep 22:36:53 22:41:52 20° 268° (W) 22:46:54 435.675 MHz FM
Sapphire 23 Sep 22:37:11 22:38:42 11° 258° (WSW) 22:40:14 437.095 MHz 1200 baud AX-25 AFSK
